7 * 24
多渠道服务支持
BEIDOU-3 M15 是中国北斗三号全球卫星导航系统中的一颗中圆地球轨道(MEO)卫星,属于北斗三号的组成部分之一。该卫星于2020年左右发射,主要用于提供高精度定位、导航和授时服务,支持全球范围内的用户。北斗三号系统由多颗地球静止轨道(GEO)、倾斜地球同步轨道(IGSO)和中圆轨道(MEO)卫星组成,M15 卫星在其中承担关键的定位与通信功能,增强了系统的稳定性和覆盖能力。
中国
(CN)
| 数据来源 | 国际轨道数据 |
| 星历时间: | 2026-09-13T00:08:44+0800 12小时前 查看轨道信息 |
| 半长轴: | 27906.549km |
| 偏心率: | 0.0002655 |
| 轨道倾角: | 54.004° |
| 近地点辐角 | 37.463° |
| 升交点赤经 | 296.911° |
| 平近点角 | 322.618° |
| 近地点: | 21521.002km |
| 远地点: | 21535.822km |
| 周期: | 773.248分钟 |
| 每日圈数: | 1.862274 |